Regional Weather Roundup
Issued by NWS

Home | Current Version | Previous Version | Graphics & Text | Print | Product List | Glossary Off
Versions: 1 2 3 4 5 6 7 8 9 10 11 12 13 14 15 16 17 18 19 20 21 22 23 24 25 26 27 28 29 30 31 32 33 34 35 36 37 38 39 40 41 42 43 44 45 46 47 48 49 50

000
ASUS43 KDTX 260510
RWRMI
MICHIGAN HOURLY REGIONAL WEATHER ROUNDUP
NATIONAL WEATHER SERVICE DETROIT/PONTIAC MI
100 AM EDT SAT MAY 26 2018

NOTE: "FAIR" INDICATES FEW OR NO CLOUDS BELOW 12,000 FEET WITH NO
SIGNIFICANT WEATHER AND/OR OBSTRUCTION TO VISIBILITY.

MIZ047>049-052>055-059>063-066>070-074>076-081>083-260600-
SOUTHEAST LOWER MICHIGAN

CITY           SKY/WX    TMP DP  RH WIND       PRES   REMARKS
ADRIAN         FAIR      63  56  78 CALM      29.83S
ALMA           FAIR      67  63  88 CALM      29.79S
ANN ARBOR      FAIR      59  56  89 CALM      29.81S
BAD AXE        FAIR      65  59  82 S3        29.78S
CARO           FAIR      64  61  88 CALM      29.78S
DETROIT CITY   FAIR      70  53  54 CALM      29.81R
DETROIT        MOCLDY    68  58  70 S3        29.81S
FLINT          FAIR      71  56  58 SW6       29.80S
GROSSE ILE     FAIR      65  62  89 CALM      29.80S
HILLSDALE      FAIR      61  54  77 S3        29.83S
HOWELL         FAIR      70  52  52 S3        29.81S

CITY           SKY/WX    TMP DP  RH WIND       PRES   REMARKS
JACKSON        FAIR      66  56  70 SW5       29.81F
LAMBERTVILLE   FAIR      67  53  61 S3        29.81F
LANSING        FAIR      73  58  59 CALM      29.80F
LAPEER         FAIR      68  55  61 SW5       29.80F
MASON          FAIR      71  55  58 S3        29.81F
MONROE         FAIR      64  62  93 CALM      29.81S
MT. CLEMENS    FAIR      64  56  76 SW5         N/A
PONTIAC        FAIR      70  57  63 CALM      29.80S
PORT HOPE        N/A     73  59  61 SW5       29.75S
PORT HURON     FAIR      64  52  63 CALM      29.80S
TRI CITIES     FAIR      72  61  68 S5        29.78S
MIDLAND        FAIR      66  61  84 CALM      29.77S
TROY           FAIR      72  53  51 SW3       29.83S
SAGINAW HB     FAIR      72  59  64 SW5       29.77S
$$
MIZ043>046-050>051-056>058-064>065-071>073-077>080-260600-
SOUTHWEST LOWER MICHIGAN

CITY           SKY/WX    TMP DP  RH WIND       PRES   REMARKS
BATTLE CREEK   FAIR      72  53  51 S6        29.81F
BENTON HARBOR  MOCLDY    72  58  61 W13       29.79R
BIG RAPIDS     FAIR      67  59  77 S9        29.77F
COLDWATER      FAIR      67  53  59 CALM      29.81F
FREMONT        FAIR      69  61  77 CALM      29.77S
HOLLAND        FAIR      72  61  68 S3        29.76F
GRAND RAPIDS   FAIR      71  64  78 S6        29.78S
IONIA          FAIR      69  63  81 CALM      29.78F
KALAMAZOO      MOCLDY    75  51  43 S6        29.80F
LUDINGTON      FAIR      66  56  69 S5        29.75S
MARSHALL       FAIR      69  50  50 CALM      29.80F
MOUNT PLEASANT FAIR      71  62  74 CALM      29.77S
MUSKEGON       FAIR      70  55  59 SW7       29.76F
SOUTH HAVEN    FAIR      76  57  50 SW6       29.78R
$$
MIZ016>042-260600-
NORTHERN LOWER MICHIGAN

CITY           SKY/WX    TMP DP  RH WIND       PRES   REMARKS
ALPENA         FAIR      63  60  90 S3        29.74F
BEAVER ISLAND  DRIZZLE   60  56  85 SW6       29.71F
BELLAIRE       MOCLDY    71  57  61 W8        29.77R
CADILLAC       FAIR      65  59  80 W3        29.78S
CHARLEVOIX     LGT RAIN  65  58  77 SW16G24   29.77S
FRANKFORT      MOCLDY    63  52  69 W5        29.80R
GAYLORD        FAIR      71  59  65 SW9       29.76S
GRAYLING       FAIR      70  58  64 SW6       29.75F
HARBOR SPRINGS FAIR      64  60  89 SW8       29.75R
HOUGHTON LAKE  FAIR      69  57  65 S3        29.78S
MANISTEE       FAIR      70  59  68 CALM      29.74S
OSCODA         FAIR      67  61  80 CALM      29.74S
PELLSTON       TSTM      65  61  87 NW5       29.74R
ROGERS CITY    FAIR      65  60  83 SE3       29.74S
TRAVERSE CITY  MOCLDY    74  57  55 NW17G29   29.77R
$$
MIZ007>008-015-260600-
EASTERN UPPER MICHIGAN

CITY           SKY/WX    TMP DP  RH WIND       PRES   REMARKS
KINROSS        MOCLDY    61  59  93 S7        29.71F
MACKINAC ISLAN FAIR      62  61  99 SW8       29.72S
NEWBERRY       FAIR      57  56  97 S10       29.69S
S. S. MARIE    MOCLDY    65  62  90 CALM      29.70F
MUNISING         N/A     71  61  70 SW8       29.65F
$$
MIZ004>006-011>014-085-260600-
CENTRAL UPPER MICHIGAN

CITY           SKY/WX    TMP DP  RH WIND       PRES   REMARKS
MANISTIQUE     FAIR      54  52  94 SW5       29.69S
ESCANABA       FAIR      65  60  84 SW7       29.68F
MENOMINEE      CLOUDY    64  61  90 CALM      29.71R
SAWYER-GWINN   FAIR      66  59  76 SW8       29.69F
$$
MIZ001>003-009>011-084-260600-
WESTERN UPPER MICHIGAN

CITY           SKY/WX    TMP DP  RH WIND       PRES   REMARKS
IRON MOUNTAIN  FAIR      63  61  93 CALM      29.69F
HOUGHTON       FAIR      63  59  87 SE3       29.64R
COPPER HARBOR    N/A     67  60  78 SW8       29.60S
IRONWOOD       FAIR      70  60  70 SW9       29.68R
$$

ABBREVIATIONS USED IN REMARKS
   TC - TEMPERATURE IN CELSIUS
  WCI - WIND CHILL INDEX
   HX - HEAT INDEX
  VSB - VISIBILITY





USA.gov is the U.S. government's official web portal to all federal, state and local government web resources and services.